RH
41 44 46 46 45 43 42 42 43 43 43 44 45 48 52 54 53 52 51 50 49 49 49 48 48 47 46 44 43 41 41 40 39 39 38 38 38 38 38 38 37 36 36 35 35 35 35 36 36 36 36 36 36 35 35 34 33 33 32 31 29 29 32 37 39 37 34 34 34 33 34 34 33 33 32 31 31 30 29 29 28 28 27 26 26
44 45 48 49 47 45 44 44 45 47 47 48 49 50 53 55 55 55 52 50 49 49 49 49 49 49 48 48 47 46 45 44 44 43 43 42 41 41 42 42 42 42 41 39 37 37 37 36 36 35 36 36 35 35 35 33 33 32 31 31 30 28 30 34 38 39 36 34 33 32 32 32 32 32 32 31 32 33 32 32 31 30 28 27 27
45 46 48 50 50 49 47 46 47 47 47 48 50 51 51 51 52 53 51 49 48 48 48 48 48 48 48 48 48 48 48 48 48 47 47 46 45 44 43 44 45 45 46 45 44 43 42 40 39 38 38 37 36 36 36 34 34 33 32 32 31 30 31 35 37 38 38 35 32 31 31 33 33 32 34 34 34 36 35 34 34 32 30 28 28
46 47 49 51 52 51 48 45 44 44 43 43 42 41 41 40 41 41 40 40 39 40 41 41 42 43 44 45 46 47 48 49 49 49 49 49 49 48 47 47 46 46 46 46 47 49 49 48 46 45 44 42 40 39 38 38 38 37 36 35 35 34 35 37 37 37 39 37 33 31 32 33 32 32 34 34 35 37 36 35 35 33 31 29 27
47 49 50 51 50 47 43 39 38 37 36 35 33 31 30 30 31 31 30 29 29 30 31 31 33 34 35 36 38 40 42 45 47 49 50 50 50 50 50 50 49 49 48 47 48 49 51 52 53 53 53 50 48 46 45 44 44 43 42 41 42 41 41 42 41 40 40 39 36 35 35 34 32 32 32 32 34 36 36 36 36 34 33 31 29
50 50 48 46 44 41 38 35 33 31 30 28 28 26 26 28 29 29 28 26 26 26 26 27 27 28 28 29 30 32 33 36 38 41 43 46 48 50 51 51 51 51 50 50 50 49 50 51 53 56 58 58 57 56 54 52 50 48 47 47 48 48 47 47 46 44 43 41 39 38 38 37 35 33 33 34 35 36 36 37 36 34 33 32 30
51 47 43 41 40 38 35 32 30 29 29 29 29 29 29 31 31 31 29 28 27 27 28 28 28 28 28 28 28 29 29 30 31 33 34 37 40 43 47 49 51 52 53 53 52 52 51 52 53 56 59 60 61 61 60 59 56 54 52 52 53 53 52 51 50 48 47 44 42 41 40 40 38 37 35 36 37 38 39 39 37 36 35 34 32
48 44 42 41 40 36 31 29 29 31 32 33 34 35 35 35 34 33 32 32 31 31 31 31 31 31 31 31 31 31 31 31 32 33 33 34 35 36 38 40 44 47 51 53 54 54 55 55 55 56 57 59 59 61 62 62 62 60 57 57 57 57 55 55 54 53 51 49 48 46 44 43 42 40 38 38 38 38 40 40 38 37 36 35 34
45 43 42 40 36 31 29 30 33 35 37 38 39 40 39 38 37 35 35 35 35 34 34 34 34 34 33 33 33 33 34 35 35 37 37 37 37 37 37 38 39 40 42 46 51 57 60 61 61 59 59 59 58 59 60 61 63 63 62 62 61 59 58 57 57 56 55 53 52 50 49 47 45 45 44 43 42 41 42 41 39 38 37 36 35
45 44 41 36 33 32 32 34 37 40 41 42 42 41 40 40 39 38 38 38 37 37 37 37 37 37 37 37 37 37 37 38 39 40 41 41 42 43 43 42 42 42 43 45 48 52 57 61 63 65 65 63 62 62 62 63 65 65 64 65 65 63 61 59 57 57 56 56 54 53 51 49 47 46 46 45 45 44 43 42 41 39 37 36 34
47 45 40 36 36 38 38 39 41 43 44 44 44 43 43 43 42 41 40 40 39 39 39 39 39 40 40 40 40 40 41 41 42 43 44 46 48 48 47 47 49 51 51 50 49 49 50 53 56 61 64 66 66 66 65 65 66 66 65 65 65 66 66 64 61 58 57 56 55 54 54 51 48 47 46 45 45 44 43 42 41 39 38 36 34
48 45 41 38 39 41 41 43 46 46 46 47 46 46 46 46 45 44 43 43 42 42 41 41 41 41 41 41 41 43 43 45 46 46 46 49 53 56 55 54 55 56 56 54 53 52 50 49 49 51 54 58 63 65 66 66 65 66 66 65 65 65 67 70 70 68 66 63 58 56 55 53 50 49 47 45 44 43 43 43 42 41 40 39 36
48 44 41 40 41 42 43 46 49 49 49 49 49 49 49 48 47 46 46 45 45 45 45 44 43 43 43 42 42 43 45 48 50 50 50 52 58 62 63 60 59 59 60 59 56 53 51 49 48 46 46 49 53 57 61 62 63 63 63 64 64 61 62 66 71 75 77 78 73 64 57 54 53 50 49 48 46 45 43 42 43 43 43 43 41
47 44 42 42 43 45 47 50 51 51 51 51 51 51 50 49 48 47 46 46 47 47 48 48 47 46 45 44 43 44 46 50 52 53 54 57 62 67 68 67 65 64 64 62 58 55 52 50 49 48 47 47 47 48 51 54 58 62 62 63 62 60 61 65 67 70 73 77 77 70 62 60 57 53 53 53 51 49 46 44 43 43 42 43 43
47 43 43 45 46 48 50 51 53 52 52 52 52 52 51 50 49 49 48 48 48 49 50 50 50 50 48 47 45 45 48 52 54 56 59 63 68 71 72 70 68 66 65 63 61 58 56 54 54 53 51 50 48 48 49 51 55 60 64 66 66 67 68 69 68 67 66 66 67 64 61 61 59 55 56 57 55 51 49 48 47 46 44 42 40
46 44 45 48 50 52 52 53 53 53 53 54 53 53 53 52 52 52 51 52 52 52 52 52 53 53 52 51 49 48 50 54 57 60 63 68 73 75 74 71 68 67 66 66 65 63 60 59 58 58 57 54 50 49 51 57 62 65 67 69 72 75 75 71 70 70 68 66 66 64 60 59 59 58 57 59 58 54 51 52 50 48 48 46 43
46 45 48 50 52 53 54 54 55 55 55 55 55 55 56 56 56 57 56 56 56 55 55 54 55 56 55 55 54 51 52 56 60 63 67 72 75 77 77 74 72 71 70 70 69 66 62 62 61 61 60 58 54 52 56 63 68 69 70 71 73 75 76 75 74 74 72 71 71 69 67 64 63 62 60 60 62 62 63 61 52 45 47 50 48
48 47 50 52 53 55 56 56 57 57 57 58 58 59 59 60 60 61 60 59 59 59 59 57 57 59 59 58 57 55 54 58 62 64 68 73 77 79 78 76 75 75 73 71 69 66 63 63 63 62 60 58 56 57 62 67 70 72 73 73 72 72 73 73 75 75 74 72 70 68 67 65 65 65 63 62 64 67 72 69 59 53 54 53 51
50 49 52 54 56 57 58 58 58 58 59 60 61 62 63 63 63 63 63 63 62 62 62 61 61 62 62 62 61 59 58 60 64 66 68 72 78 81 81 79 79 78 76 72 70 67 65 64 65 65 65 65 66 69 72 77 80 80 79 78 77 74 69 67 69 70 71 71 69 66 64 62 63 65 63 62 61 63 68 69 67 66 63 56 54
52 51 54 56 57 59 60 60 60 61 62 63 64 65 66 66 66 66 66 66 66 67 67 66 64 64 65 65 65 63 62 63 64 66 68 72 78 82 83 83 81 78 76 73 70 68 67 67 69 69 70 72 74 77 78 81 85 87 87 87 81 71 64 64 66 68 71 71 68 67 67 66 66 65 62 59 57 56 59 62 64 67 67 60 57
54 53 55 57 59 61 62 62 63 64 66 66 66 68 70 70 69 69 69 69 70 71 71 70 68 67 67 69 68 66 65 64 65 66 69 72 76 79 80 81 81 80 78 75 72 70 70 71 70 71 75 79 79 80 81 81 86 91 92 88 78 70 71 75 74 72 71 68 64 64 66 66 66 65 62 58 56 54 53 55 59 63 65 63 61
55 54 57 59 61 63 64 65 67 68 69 70 70 71 73 73 73 73 72 72 72 73 73 73 71 70 70 72 71 68 66 66 67 68 70 70 71 73 77 79 81 83 82 77 74 73 73 73 72 76 83 86 85 85 85 85 88 89 85 79 76 75 77 78 74 70 68 65 62 62 63 65 64 63 60 56 54 52 52 54 57 59 61 61 61
56 55 58 60 62 66 67 69 71 72 73 73 74 75 76 76 77 77 76 76 75 75 75 75 74 73 72 74 74 70 67 68 69 71 72 71 68 69 74 79 83 86 84 78 76 75 73 73 76 80 87 90 90 91 91 89 88 86 82 79 79 78 76 73 70 68 66 66 66 65 65 66 67 64 60 57 54 54 56 58 58 58 57 57 57
55 55 58 62 65 68 70 72 74 76 76 77 77 79 80 80 81 81 81 81 80 79 78 78 77 76 75 75 76 72 68 69 71 74 74 72 68 67 71 77 83 85 82 76 74 73 73 77 83 88 93 95 93 92 88 84 84 84 84 84 81 78 76 73 69 68 69 71 73 72 68 68 68 65 61 59 58 60 62 62 60 59 58 58 58
54 54 59 64 67 71 72 74 77 79 80 81 81 83 85 86 86 87 87 87 86 83 81 81 80 78 77 77 77 74 71 71 73 74 74 73 70 68 71 77 81 82 80 77 76 77 82 86 90 94 95 92 89 85 82 80 82 85 84 83 82 79 77 76 76 78 77 74 74 74 71 68 68 66 64 65 67 67 67 67 65 62 61 61 60
54 54 59 65 69 73 74 76 79 81 83 84 85 88 91 92 93 93 92 91 89 86 84 83 82 81 79 79 79 77 74 73 74 74 74 74 72 71 75 81 84 85 85 84 83 85 89 91 92 94 94 91 89 88 86 86 87 88 87 85 85 84 83 84 86 84 80 76 74 74 71 70 70 70 70 72 74 74 74 74 71 68 66 66 65
55 54 58 65 71 75 77 78 80 83 86 88 90 93 96 97 97 97 95 92 90 89 87 86 85 83 81 81 83 81 77 74 75 76 76 74 74 76 80 84 87 89 90 88 85 85 88 90 92 92 91 90 89 89 90 91 91 90 89 87 87 86 87 88 86 82 79 79 78 75 73 74 76 76 76 76 77 79 79 77 75 73 72 71 71
55 54 58 65 72 77 80 82 83 86 89 91 94 95 97 98 99 100 98 96 93 92 90 89 88 87 85 85 85 83 79 76 76 77 76 76 77 80 83 87 90 93 93 91 88 87 87 89 91 90 88 87 86 87 90 93 93 91 90 89 88 89 89 87 84 83 83 84 83 82 83 84 84 82 81 79 79 79 78 76 76 76 76 76 76
56 55 58 65 72 78 82 86 88 89 91 92 94 96 97 99 100 100 100 99 98 95 92 90 89 88 87 86 85 84 81 77 75 75 77 79 81 83 86 91 95 96 95 94 92 89 89 90 90 89 87 87 88 91 93 94 94 93 92 92 93 94 93 90 88 88 88 89 89 89 89 90 89 86 82 79 77 77 75 75 76 77 79 81 80
58 57 59 64 71 77 83 87 90 91 92 92 93 95 98 100 101 103 102 102 101 98 94 91 91 90 89 87 86 86 84 78 75 75 78 81 84 86 90 95 97 98 97 96 94 92 91 90 89 88 88 90 93 96 96 96 96 95 94 95 97 96 94 92 91 90 89 90 91 91 91 91 90 88 85 81 79 78 79 78 79 80 82 83 82
61 59 60 63 68 75 81 86 89 91 92 93 94 94 95 96 98 103 104 104 103 102 99 97 97 98 97 94 91 90 88 84 79 77 78 81 84 87 91 95 97 98 97 97 96 95 93 90 88 89 91 94 96 97 97 97 97 96 96 97 97 95 93 93 92 91 90 91 91 91 91 91 90 89 89 86 83 82 83 83 84 85 86 87 88
63 61 61 62 66 72 78 83 86 88 89 91 93 94 94 93 92 97 102 104 103 102 101 99 98 100 103 101 98 95 93 89 83 80 80 81 83 86 89 92 96 98 98 98 98 96 93 91 90 92 94 96 97 97 97 99 98 97 97 97 96 95 94 94 93 92 92 92 91 91 91 93 92 90 90 90 88 85 85 87 89 90 92 95 97
66 63 61 61 64 68 73 77 81 83 85 87 90 93 95 93 90 90 96 101 102 102 101 100 98 99 101 101 101 99 96 93 89 84 81 80 82 82 85 90 95 99 99 98 97 96 93 92 92 94 96 98 99 99 99 99 98 97 97 96 96 96 95 94 94 94 93 93 93 93 93 95 94 91 91 93 93 91 90 91 93 95 98 101 101
68 63 60 60 61 64 68 72 76 79 81 84 87 90 92 92 90 89 92 96 99 99 99 99 99 99 98 98 99 99 97 95 92 87 82 81 82 81 82 87 93 96 96 95 96 96 95 93 94 96 98 99 100 100 100 98 97 97 96 96 96 97 96 95 95 96 96 95 96 95 96 97 96 95 94 95 96 96 96 96 97 99 101 101 101
67 63 59 59 60 62 65 69 73 76 79 81 84 87 89 91 91 91 93 96 98 98 98 99 100 100 99 98 98 99 97 95 93 89 86 85 83 80 81 85 89 91 91 92 95 97 97 96 96 99 100 100 100 101 101 99 97 97 97 97 96 98 98 98 97 98 98 98 98 98 98 99 98 98 98 98 97 97 99 99 100 101 101 100 100
66 61 59 58 59 61 64 67 71 74 77 79 81 83 86 89 91 92 95 98 99 99 99 99 99 99 99 99 99 99 98 97 95 92 90 87 83 80 81 84 86 87 88 91 94 96 97 97 98 100 101 101 101 101 101 100 98 97 98 97 97 99 100 99 99 99 100 100 100 100 100 100 99 99 100 100 99 98 99 100 101 101 100 99 100
64 60 58 58 59 60 63 66 70 73 75 77 78 79 81 84 87 90 94 98 100 100 100 99 99 99 99 99 100 100 99 99 98 95 92 89 84 82 81 82 83 86 88 91 94 97 98 98 99 101 102 102 101 101 101 100 98 96 97 98 98 99 101 100 100 100 100 101 102 102 101 101 100 100 100 100 100 99 100 100 100 101 100 100 101
63 59 58 58 60 61 63 66 68 72 74 75 76 76 77 78 81 85 91 97 101 101 100 100 100 100 100 100 100 101 100 100 99 97 95 92 87 83 83 82 83 85 89 91 95 98 99 99 100 103 103 102 101 100 101 100 98 96 96 98 100 100 100 101 101 101 101 101 101 102 102 101 101 101 100 100 99 99 97 98 99 100 101 101 101
61 59 58 59 61 63 64 66 67 70 71 73 74 74 74 75 78 81 86 95 100 102 101 100 101 101 101 101 101 101 101 100 99 97 97 96 92 87 85 85 85 85 88 91 95 97 99 100 100 103 104 103 101 100 100 100 100 97 96 98 101 101 100 101 101 101 101 101 101 102 102 101 101 101 100 99 100 99 97 98 100 101 101 101 101
60 58 58 60 62 64 65 65 66 66 68 70 72 72 73 75 77 78 83 90 98 101 101 101 101 101 102 102 102 101 100 100 99 98 98 99 97 92 87 86 86 85 86 90 93 97 100 101 100 102 104 104 102 100 100 100 100 97 96 98 102 102 100 100 100 101 102 101 101 101 102 101 101 101 100 99 100 100 100 100 101 101 101 101 101
60 59 59 60 62 65 66 65 64 65 67 70 72 74 75 76 77 78 81 87 95 100 101 101 101 101 102 102 102 101 100 100 100 100 99 99 100 98 91 87 86 85 85 88 92 95 99 102 102 102 103 104 102 100 100 100 99 98 97 99 102 103 101 99 99 100 102 102 101 101 102 102 101 100 100 100 101 101 101 101 102 101 101 101 101
60 60 60 61 63 66 67 66 64 65 68 71 74 76 77 78 78 80 82 86 93 98 101 101 101 101 102 102 102 102 101 101 101 101 99 99 100 101 97 90 87 86 85 86 89 93 98 102 103 102 103 104 103 101 100 100 100 98 98 100 102 103 102 100 99 99 100 102 101 100 101 101 101 101 100 101 101 102 101 102 102 102 101 101 101
59 60 61 61 64 67 69 68 66 67 69 72 75 78 79 79 80 81 83 87 93 99 101 102 101 101 102 102 102 101 101 101 101 102 101 99 100 102 101 96 90 87 86 86 87 90 95 100 103 104 104 105 105 103 102 101 100 99 99 101 103 104 102 101 99 98 99 100 101 101 100 101 101 101 101 101 101 101 101 101 101 101 101 101 101
58 60 61 62 64 67 69 70 70 70 70 73 75 78 79 81 83 84 85 88 94 99 101 102 101 101 101 101 101 101 100 100 100 101 101 100 100 102 104 101 95 91 88 87 86 88 92 97 102 104 105 105 105 105 104 102 99 98 99 101 102 103 103 102 101 99 98 98 100 101 101 100 101 101 101 101 101 101 101 101 101 101 101 100 100
57 59 60 61 63 66 69 71 72 73 73 74 75 77 79 82 84 86 86 89 93 98 101 102 101 101 100 101 100 100 100 100 100 100 100 100 100 101 103 104 100 95 91 89 87 88 90 95 100 104 106 106 106 106 105 103 100 99 99 101 102 102 102 102 101 100 99 98 98 99 100 100 101 101 101 101 100 100 100 100 101 101 101 100 100
56 56 58 61 63 65 68 71 73 75 76 76 75 75 77 81 84 87 88 90 94 98 101 102 101 101 101 100 100 100 100 100 101 100 100 100 100 100 102 104 103 98 94 91 89 88 89 92 97 102 105 106 106 107 106 104 102 100 100 102 102 101 101 101 101 101 100 99 98 98 99 99 100 101 101 101 101 100 100 101 101 101 100 100 100
55 54 55 59 62 65 68 71 74 77 77 77 76 76 77 80 84 87 89 92 96 99 101 101 101 101 100 100 100 101 100 100 100 100 100 100 100 100 102 104 103 99 96 94 91 89 89 91 95 99 103 104 106 107 107 106 102 100 101 102 102 101 100 101 101 102 102 100 99 99 99 99 99 100 101 101 101 100 100 100 101 100 100 100 100
54 52 53 56 61 65 68 70 74 77 78 78 78 78 78 80 84 87 90 94 97 100 101 101 101 100 100 100 100 100 100 100 100 100 100 100 100 100 101 103 102 99 97 95 93 91 90 91 94 97 101 103 105 106 107 106 103 100 101 103 102 101 101 100 101 102 103 102 100 100 99 98 98 99 100 101 101 100 100 100 100 100 101 101 100
52 51 52 55 59 63 67 70 73 76 78 79 79 78 78 80 84 87 91 95 99 100 101 101 101 100 100 100 100 100 100 100 100 100 100 100 100 100 101 102 100 98 97 96 94 93 92 92 94 97 100 102 105 105 105 106 104 101 101 103 103 101 100 100 101 102 104 103 101 101 100 99 98 98 99 100 101 100 100 100 100 100 101 100 101
51 51 52 55 58 62 65 69 73 77 79 80 80 79 78 80 84 88 92 97 100 101 102 101 101 101 101 100 100 100 100 100 100 100 100 100 100 101 102 100 97 95 95 95 94 94 93 93 94 97 99 101 103 104 104 105 104 102 102 104 103 101 100 100 101 102 104 103 101 101 101 100 99 98 98 99 100 100 100 100 100 100 101 101 101
50 51 53 55 58 61 65 69 73 77 80 81 80 78 79 81 84 89 94 99 101 102 102 102 101 101 100 100 100 100 100 100 100 100 100 100 101 101 101 97 95 94 94 93 93 94 94 95 96 97 98 100 102 101 101 104 104 103 103 105 104 102 101 101 100 101 102 102 101 101 102 101 101 99 98 98 99 100 100 100 100 100 100 101 101